When you browse on this site, cookies collect data to enhance your experience and personalize the content and advertising you see.
Visit our Privacy Policy to learn more. By continuing to use the site, you agree to this use of cookies and data.
  • En España
  • Lista de países
  • Para 7 días
  • Temperatura del agua
  • El tiempo en el mapa
  • Informadores
  • user-avatar
    Iniciar sesión

    Tiempo cada hora Elbasan

    Hoy, 5 Junio, Viernes

    Tiempo Temperatura Precipitaciones Viento Presión Humedad
    00:00 +15°C° 0 mm 2 mps 732 mmHg 66%
    01:00 +15°C° 0 mm 2 mps 732 mmHg 66%
    02:00 +15°C° 0 mm 2 mps 732 mmHg 64%
    03:00 +15°C° 0 mm 2 mps 731 mmHg 61%
    04:00 +15°C° 0 mm 2 mps 731 mmHg 59%
    05:00 +17°C° 0 mm 2 mps 731 mmHg 57%
    06:00 +19°C° 0 mm 1 mps 732 mmHg 55%
    07:00 +21°C° 0 mm 1 mps 732 mmHg 53%
    08:00 +21°C° 0 mm 2 mps 732 mmHg 50%
    09:00 +23°C° 0 mm 2 mps 732 mmHg 46%
    10:00 +25°C° 0 mm 2 mps 732 mmHg 43%
    11:00 +24°C° 0.2 mm 2 mps 731 mmHg 49%
    12:00 +24°C° 0.2 mm 2 mps 731 mmHg 55%
    13:00 +23°C° 0.2 mm 2 mps 731 mmHg 62%
    14:00 +24°C° 0 mm 1 mps 730 mmHg 57%
    15:00 +25°C° 0 mm 1 mps 730 mmHg 53%
    16:00 +26°C° 0 mm 1 mps 729 mmHg 49%
    17:00 +25°C° 0 mm 1 mps 729 mmHg 56%
    18:00 +23°C° 0 mm 1 mps 729 mmHg 63%
    19:00 +21°C° 0 mm 1 mps 729 mmHg 70%
    20:00 +21°C° 0 mm 1 mps 729 mmHg 70%
    21:00 +19°C° 0 mm 2 mps 728 mmHg 70%
    22:00 +19°C° 0 mm 2 mps 728 mmHg 71%
    23:00 +18°C° 0.4 mm 2 mps 728 mmHg 75%

    Mañana, 6 Junio, Sábado

    Tiempo Temperatura Precipitaciones Viento Presión Humedad
    00:00 +18°C° 0.4 mm 3 mps 728 mmHg 79%
    01:00 +18°C° 0.4 mm 3 mps 727 mmHg 83%
    02:00 +18°C° 0 mm 3 mps 727 mmHg 83%
    03:00 +17°C° 0 mm 3 mps 727 mmHg 84%
    04:00 +17°C° 0 mm 3 mps 726 mmHg 84%
    05:00 +18°C° 0 mm 3 mps 727 mmHg 80%
    06:00 +19°C° 0 mm 2 mps 727 mmHg 77%
    07:00 +20°C° 0 mm 2 mps 727 mmHg 73%
    08:00 +23°C° 0.1 mm 2 mps 728 mmHg 66%
    09:00 +24°C° 0.1 mm 2 mps 728 mmHg 60%
    10:00 +25°C° 0.1 mm 3 mps 728 mmHg 53%
    11:00 +25°C° 0.4 mm 3 mps 728 mmHg 56%
    12:00 +24°C° 0.4 mm 3 mps 728 mmHg 60%
    13:00 +23°C° 0.4 mm 2 mps 728 mmHg 63%
    14:00 +23°C° 0.3 mm 2 mps 729 mmHg 65%
    15:00 +22°C° 0.3 mm 1 mps 729 mmHg 68%
    16:00 +22°C° 0.3 mm 1 mps 729 mmHg 70%
    17:00 +21°C° 0 mm 1 mps 729 mmHg 72%
    18:00 +18°C° 0 mm 0 mps 729 mmHg 75%
    19:00 +17°C° 0 mm 0 mps 729 mmHg 77%
    20:00 +17°C° 0 mm 0 mps 730 mmHg 79%
    21:00 +18°C° 0 mm 1 mps 730 mmHg 81%
    22:00 +18°C° 0 mm 1 mps 730 mmHg 82%
    23:00 +18°C° 0 mm 1 mps 730 mmHg 82%

    Pasado mañana, 7 Junio, Domingo

    Tiempo Temperatura Precipitaciones Viento Presión Humedad
    00:00 +18°C° 0 mm 1 mps 730 mmHg 82%
    01:00 +18°C° 0 mm 1 mps 730 mmHg 82%
    02:00 +16°C° 0 mm 1 mps 730 mmHg 84%
    03:00 +16°C° 0 mm 1 mps 730 mmHg 85%
    04:00 +15°C° 0 mm 1 mps 730 mmHg 86%
    05:00 +18°C° 0 mm 1 mps 731 mmHg 81%
    06:00 +20°C° 0 mm 1 mps 731 mmHg 76%
    07:00 +21°C° 0 mm 1 mps 731 mmHg 71%
    08:00 +22°C° 0 mm 1 mps 731 mmHg 67%
    09:00 +24°C° 0 mm 2 mps 731 mmHg 63%
    10:00 +25°C° 0 mm 2 mps 731 mmHg 59%
    11:00 +25°C° 0.1 mm 3 mps 731 mmHg 59%
    12:00 +26°C° 0.1 mm 3 mps 731 mmHg 59%
    13:00 +26°C° 0.1 mm 4 mps 731 mmHg 59%
    14:00 +26°C° 0.1 mm 4 mps 731 mmHg 60%
    15:00 +25°C° 0.1 mm 3 mps 731 mmHg 61%
    16:00 +25°C° 0.1 mm 3 mps 731 mmHg 63%
    17:00 +23°C° 0.1 mm 2 mps 731 mmHg 71%
    18:00 +22°C° 0.1 mm 1 mps 731 mmHg 78%
    19:00 +20°C° 0.1 mm 1 mps 731 mmHg 86%
    20:00 +20°C° 0 mm 1 mps 732 mmHg 87%
    21:00 +19°C° 0 mm 1 mps 732 mmHg 87%
    22:00 +18°C° 0 mm 1 mps 732 mmHg 87%
    23:00 +18°C° 0 mm 1 mps 732 mmHg 86%

    8 Junio, Lunes

    Tiempo Temperatura Precipitaciones Viento Presión Humedad
    00:00 +18°C° 0 mm 1 mps 732 mmHg 85%
    01:00 +18°C° 0 mm 1 mps 732 mmHg 83%
    02:00 +18°C° 0 mm 1 mps 731 mmHg 83%
    03:00 +18°C° 0 mm 1 mps 731 mmHg 82%
    04:00 +18°C° 0 mm 1 mps 731 mmHg 81%
    05:00 +19°C° 0 mm 1 mps 731 mmHg 77%
    06:00 +19°C° 0 mm 0 mps 731 mmHg 72%
    07:00 +21°C° 0 mm 0 mps 732 mmHg 68%
    08:00 +24°C° 0 mm 1 mps 732 mmHg 64%
    09:00 +25°C° 0 mm 1 mps 732 mmHg 60%
    10:00 +26°C° 0 mm 2 mps 732 mmHg 56%
    11:00 +26°C° 0.3 mm 2 mps 732 mmHg 56%
    12:00 +26°C° 0.3 mm 2 mps 732 mmHg 56%
    13:00 +27°C° 0.3 mm 2 mps 731 mmHg 56%
    14:00 +26°C° 0.6 mm 2 mps 731 mmHg 57%
    15:00 +26°C° 0.6 mm 2 mps 731 mmHg 59%
    16:00 +26°C° 0.6 mm 2 mps 731 mmHg 60%
    17:00 +24°C° 0.3 mm 2 mps 731 mmHg 66%
    18:00 +23°C° 0.3 mm 1 mps 731 mmHg 71%
    19:00 +21°C° 0.3 mm 1 mps 731 mmHg 77%
    20:00 +21°C° 0 mm 1 mps 731 mmHg 77%
    21:00 +20°C° 0 mm 1 mps 731 mmHg 77%
    22:00 +20°C° 0 mm 1 mps 732 mmHg 77%
    23:00 +19°C° 0 mm 1 mps 732 mmHg 77%

    9 Junio, Martes

    Tiempo Temperatura Precipitaciones Viento Presión Humedad
    00:00 +19°C° 0 mm 1 mps 731 mmHg 76%
    01:00 +19°C° 0 mm 1 mps 731 mmHg 76%
    02:00 +19°C° 0 mm 1 mps 731 mmHg 76%
    03:00 +18°C° 0 mm 1 mps 731 mmHg 76%
    04:00 +18°C° 0 mm 1 mps 731 mmHg 76%
    05:00 +20°C° 0 mm 1 mps 731 mmHg 71%
    06:00 +20°C° 0 mm 0 mps 732 mmHg 67%
    07:00 +22°C° 0 mm 0 mps 732 mmHg 62%
    08:00 +25°C° 0.4 mm 1 mps 732 mmHg 59%
    09:00 +26°C° 0.4 mm 1 mps 732 mmHg 57%
    10:00 +27°C° 0.4 mm 2 mps 732 mmHg 54%
    11:00 +27°C° 0.5 mm 2 mps 732 mmHg 54%
    12:00 +28°C° 0.5 mm 3 mps 732 mmHg 53%
    13:00 +28°C° 0.5 mm 3 mps 732 mmHg 53%
    14:00 +27°C° 0.7 mm 3 mps 731 mmHg 55%
    15:00 +27°C° 0.7 mm 3 mps 731 mmHg 57%
    16:00 +26°C° 0.7 mm 2 mps 731 mmHg 59%
    17:00 +25°C° 0.1 mm 2 mps 731 mmHg 65%
    18:00 +23°C° 0.1 mm 1 mps 731 mmHg 71%
    19:00 +21°C° 0.1 mm 1 mps 731 mmHg 78%
    20:00 +20°C° 0 mm 1 mps 731 mmHg 78%
    21:00 +20°C° 0 mm 1 mps 732 mmHg 79%
    22:00 +19°C° 0 mm 1 mps 732 mmHg 79%
    23:00 +19°C° 0 mm 1 mps 732 mmHg 77%

    10 Junio, Miércoles

    Tiempo Temperatura Precipitaciones Viento Presión Humedad
    00:00 +19°C° 0 mm 1 mps 732 mmHg 75%
    01:00 +18°C° 0 mm 1 mps 731 mmHg 73%
    02:00 +18°C° 0 mm 1 mps 731 mmHg 71%
    03:00 +18°C° 0 mm 1 mps 731 mmHg 69%
    04:00 +18°C° 0 mm 1 mps 731 mmHg 68%
    05:00 +20°C° 0 mm 1 mps 731 mmHg 64%
    06:00 +19°C° 0 mm 0 mps 732 mmHg 60%
    07:00 +21°C° 0 mm 0 mps 732 mmHg 56%
    08:00 +24°C° 0 mm 1 mps 732 mmHg 54%
    09:00 +26°C° 0 mm 1 mps 732 mmHg 52%
    10:00 +27°C° 0 mm 2 mps 732 mmHg 50%
    11:00 +27°C° 0.3 mm 2 mps 732 mmHg 50%
    12:00 +27°C° 0.3 mm 3 mps 732 mmHg 51%
    13:00 +28°C° 0.3 mm 3 mps 732 mmHg 51%
    14:00 +27°C° 0.3 mm 3 mps 732 mmHg 54%
    15:00 +26°C° 0.3 mm 3 mps 732 mmHg 57%
    16:00 +26°C° 0.3 mm 3 mps 732 mmHg 61%
    17:00 +24°C° 0.4 mm 2 mps 732 mmHg 68%
    18:00 +21°C° 0.4 mm 2 mps 732 mmHg 74%
    19:00 +21°C° 0.4 mm 1 mps 732 mmHg 81%
    20:00 +20°C° 0 mm 1 mps 732 mmHg 81%
    21:00 +19°C° 0 mm 1 mps 732 mmHg 81%
    22:00 +17°C° 0 mm 0 mps 733 mmHg 81%
    23:00 +16°C° 0 mm 0 mps 733 mmHg 82%
    Mostrar más